Regional Weather Roundup
Issued by NWS

Home | Current Version | Previous Version | Text Only | Print | Product List | Glossary On
Versions: 1 2 3 4 5 6 7 8 9 10 11 12 13 14 15 16 17 18 19 20 21 22 23 24 25 26 27 28 29 30 31 32 33 34 35 36 37 38 39 40 41 42 43 44 45 46 47 48 49 50
000
ASUS44 KOUN 281110
RWROK

WEATHER ROUNDUP FOR OKLAHOMA
NATIONAL WEATHER SERVICE NORMAN OK
600 AM CDT WED JUN 28 2017

NOTE: "FAIR" INDICATES FEW OR NO CLOUDS BELOW 12,000 FEET WITH NO
      SIGNIFICANT WEATHER AND/OR OBSTRUCTIONS TO VISIBILITY.

OKZ001>007-009>012-014-015-017-281200-
NORTHWEST OKLAHOMA AND THE PANHANDLE

CITY           SKY/WX    TMP DP  RH WIND       PRES   REMARKS
GAGE           CLOUDY    75  65  70 S24G31    29.81F
GUYMON         CLEAR     72  62  71 S18       29.77R
ENID/WOODRING  CLEAR     73  70  88 S14       29.86S
$$

OKZ016-021>023-033>039-044-045-281200-
SOUTHWEST OKLAHOMA

CITY           SKY/WX    TMP DP  RH WIND       PRES   REMARKS
LAWTON/REGL    CLEAR     72  71  97 S9        29.90F
LAWTON/FT SILL CLEAR     71  71 100 S10       29.89S
FREDERICK      CLEAR     73  68  84 S10       29.87S
CLINTON        CLEAR     73  66  78 S21G26    29.88S
HOBART         CLEAR     73  67  81 S15       29.90R
ALTUS AFB      CLEAR     72  66  82 S10       29.89R
$$

OKZ018>020-024>031-281200-
CENTRAL OKLAHOMA

CITY           SKY/WX    TMP DP  RH WIND       PRES   REMARKS
OKLAHOMA CITY  PTCLDY    71  69  93 S9        29.91R
OKC/WILEY POST CLEAR     74  70  87 S15       29.90R
OKC/TINKER AFB CLEAR     72  68  88 S14       29.91R
STILLWATER     CLEAR     73  67  81 S10       29.90R
GUTHRIE        CLEAR     74  69  85 S12       29.89R
$$

OKZ008-013-054>072-281200-
NORTHEAST OKLAHOMA

CITY           SKY/WX    TMP DP  RH WIND       PRES   REMARKS
TULSA          MOCLDY    73  67  81 S12       29.92R
TULSA/JONES    MOCLDY    73  65  75 S7        29.94R
PONCA CITY     CLEAR     75  66  73 S14G21    29.87S
BARTLESVILLE   CLEAR     72  65  78 S6        29.92R
MUSKOGEE       CLEAR     69  65  86 SE6       29.96R
$$

OKZ032-040>043-046>053-073>077-281200-
SOUTH CENTRAL/SOUTHEAST OKLAHOMA

CITY           SKY/WX    TMP DP  RH WIND       PRES   REMARKS
ARDMORE/DWNTWN CLEAR     72  68  88 SW5       29.94R
MCALESTER      MOCLDY    74  66  76 VRB5      29.95S
$$




USA.gov is the U.S. government's official web portal to all federal, state and local government web resources and services.